Powrót do katalogu

DMSP 5D-2 F13 DEB

AktywnySSO
NORAD 40568·DEBRIS·🇺🇸 United States

Wystrzelony Mar 24, 1995 z Vandenberg Space Force Base

Loading…

Następne Przeloty (najbliższe 24 godziny)

TLE

ŚwieżeSource: Space-Track

Epoka: Sep 14, 2026, 01:45 UTC

1 40568U 95015EB  26257.07321065  .00002862  00000-0  97340-3 0  9993
2 40568  98.8332 294.2130 0026113 269.3375  90.4819 14.37187168593056

Śledź DMSP 5D-2 F13 DEB w czasie rzeczywistym z AllMySat

Download on the App Store